�������l�o���
Date,Time,MP-1(��Sv/h),MP-2(��Sv/h),MP-3(��Sv/h),MP-4(��Sv/h),MP-5(��Sv/h),MP-6(��Sv/h),MP-7(��Sv/h),����,����(m/s),���J
2022/06/06,00:00,0.152,0.142,0.221,0.214,0.216,0.121,0.078,�k�k��,3.5,�L
2022/06/06,00:10,0.152,0.141,0.221,0.215,0.215,0.121,0.077,�k�k��,4.0,�L
2022/06/06,00:20,0.151,0.142,0.220,0.214,0.217,0.122,0.077,�k�k��,4.5,�L
2022/06/06,00:30,0.153,0.141,0.222,0.214,0.216,0.121,0.078,�k�k��,5.0,�L
2022/06/06,00:40,0.151,0.141,0.220,0.214,0.217,0.121,0.077,�k�k��,4.8,�L
2022/06/06,00:50,0.153,0.141,0.220,0.213,0.214,0.122,0.078,�k,4.6,�L
2022/06/06,01:00,0.151,0.141,0.220,0.213,0.216,0.120,0.077,�k�k��,4.4,�L
2022/06/06,01:10,0.152,0.140,0.218,0.214,0.215,0.121,0.078,�k�k��,4.6,�L
2022/06/06,01:20,0.152,0.140,0.220,0.213,0.216,0.120,0.077,�k�k��,4.7,�L
2022/06/06,01:30,0.152,0.140,0.219,0.213,0.216,0.120,0.077,�k�k��,3.9,�L
2022/06/06,01:40,0.152,0.142,0.219,0.212,0.215,0.121,0.077,�k�k��,4.3,�L
2022/06/06,01:50,0.151,0.140,0.219,0.214,0.215,0.120,0.076,�k�k��,3.8,�L
2022/06/06,02:00,0.151,0.140,0.218,0.212,0.214,0.121,0.076,�k�k��,3.8,�L
2022/06/06,02:10,0.151,0.140,0.220,0.213,0.215,0.120,0.077,�k�k��,3.6,�L
2022/06/06,02:20,0.152,0.139,0.218,0.213,0.214,0.121,0.076,�k,4.2,��
2022/06/06,02:30,0.151,0.140,0.219,0.214,0.215,0.120,0.077,�k�k��,4.8,��
2022/06/06,02:40,0.151,0.140,0.218,0.213,0.214,0.119,0.076,�k�k��,4.6,��
2022/06/06,02:50,0.151,0.140,0.218,0.212,0.215,0.120,0.076,�k�k��,5.2,��
2022/06/06,03:00,0.152,0.140,0.220,0.214,0.214,0.120,0.076,�k��,5.4,��
2022/06/06,03:10,0.151,0.140,0.218,0.213,0.213,0.120,0.076,�k��,6.1,��
2022/06/06,03:20,0.151,0.140,0.219,0.213,0.215,0.120,0.077,���k��,5.3,�L
2022/06/06,03:30,0.152,0.139,0.218,0.213,0.212,0.120,0.076,���k��,5.9,�L
2022/06/06,03:40,0.151,0.141,0.218,0.212,0.214,0.120,0.077,���k��,6.1,�L
2022/06/06,03:50,0.151,0.140,0.220,0.212,0.214,0.120,0.078,���k��,6.7,�L
2022/06/06,04:00,0.152,0.141,0.219,0.212,0.215,0.121,0.077,�k��,6.6,�L
2022/06/06,04:10,0.152,0.141,0.219,0.213,0.215,0.120,0.077,�k��,7.1,�L
2022/06/06,04:20,0.152,0.141,0.219,0.213,0.216,0.121,0.077,�k��,5.7,�L
2022/06/06,04:30,0.151,0.141,0.219,0.213,0.216,0.121,0.078,�k��,6.0,�L
2022/06/06,04:40,0.152,0.141,0.220,0.214,0.214,0.121,0.077,�k��,5.4,�L
2022/06/06,04:50,0.152,0.141,0.219,0.214,0.217,0.120,0.078,�k��,4.5,�L
2022/06/06,05:00,0.152,0.141,0.221,0.214,0.215,0.122,0.078,�k��,5.1,�L
2022/06/06,05:10,0.152,0.141,0.219,0.214,0.216,0.121,0.078,�k�k��,6.2,�L
2022/06/06,05:20,0.152,0.142,0.219,0.214,0.216,0.122,0.078,�k,5.2,�L
2022/06/06,05:30,0.152,0.141,0.220,0.215,0.217,0.121,0.079,�k,5.6,�L
2022/06/06,05:40,0.152,0.142,0.219,0.213,0.216,0.122,0.079,�k,6.9,�L
2022/06/06,05:50,0.153,0.142,0.219,0.213,0.214,0.122,0.079,�k,7.1,�L
2022/06/06,06:00,0.152,0.143,0.220,0.214,0.216,0.122,0.079,�k�k��,6.4,�L
2022/06/06,06:10,0.153,0.143,0.219,0.213,0.215,0.123,0.079,�k,6.7,�L
2022/06/06,06:20,0.154,0.143,0.220,0.214,0.216,0.123,0.081,�k��,5.7,�L
2022/06/06,06:30,0.154,0.144,0.219,0.213,0.215,0.124,0.080,�k,4.8,�L
2022/06/06,06:40,0.152,0.143,0.219,0.213,0.216,0.124,0.081,�k,6.5,�L
2022/06/06,06:50,0.153,0.143,0.218,0.214,0.217,0.124,0.082,�k,6.2,�L
2022/06/06,07:00,0.153,0.143,0.219,0.213,0.216,0.124,0.082,�k,7.0,�L
2022/06/06,07:10,0.153,0.144,0.218,0.213,0.218,0.123,0.081,�k,5.4,�L
2022/06/06,07:20,0.153,0.143,0.218,0.213,0.217,0.124,0.081,�k,5.1,�L
2022/06/06,07:30,0.153,0.143,0.218,0.211,0.217,0.124,0.082,�k,5.0,�L
2022/06/06,07:40,0.153,0.144,0.217,0.213,0.216,0.124,0.081,�k,6.1,�L
2022/06/06,07:50,0.152,0.142,0.217,0.211,0.216,0.123,0.082,�k,10.9,�L
2022/06/06,08:00,0.152,0.142,0.215,0.208,0.216,0.122,0.081,�k��,3.2,�L
2022/06/06,08:10,0.151,0.143,0.215,0.209,0.214,0.123,0.082,�k,9.5,�L
2022/06/06,08:20,0.152,0.141,0.214,0.208,0.215,0.123,0.082,�k�k��,4.3,�L
2022/06/06,08:30,0.151,0.142,0.212,0.207,0.214,0.121,0.082,�k�k��,7.0,�L
2022/06/06,08:40,0.151,0.143,0.214,0.207,0.215,0.123,0.082,�k,4.9,�L
2022/06/06,08:50,0.150,0.143,0.214,0.207,0.216,0.122,0.083,�k�k��,6.4,�L
2022/06/06,09:00,0.150,0.142,0.213,0.208,0.215,0.121,0.083,�k�k��,6.3,�L
2022/06/06,09:10,0.150,0.143,0.215,0.208,0.218,0.122,0.083,�k�k��,6.3,�L
2022/06/06,09:20,0.150,0.142,0.214,0.208,0.216,0.122,0.083,�k��,7.6,�L
2022/06/06,09:30,0.149,0.144,0.214,0.208,0.215,0.121,0.082,�k��,5.8,�L
2022/06/06,09:40,0.150,0.143,0.214,0.208,0.215,0.121,0.082,�k��,6.8,�L
2022/06/06,09:50,0.149,0.142,0.213,0.208,0.215,0.122,0.083,�k�k��,6.2,�L
2022/06/06,10:00,0.147,0.143,0.212,0.206,0.215,0.122,0.083,�k�k��,5.5,�L
2022/06/06,10:10,0.148,0.143,0.213,0.207,0.214,0.122,0.082,�k�k��,5.1,�L
2022/06/06,10:20,0.148,0.142,0.212,0.207,0.215,0.121,0.082,�k�k��,6.7,�L
2022/06/06,10:30,0.147,0.142,0.211,0.205,0.212,0.120,0.081,�k�k��,7.0,�L
2022/06/06,10:40,0.146,0.140,0.211,0.204,0.213,0.119,0.082,�k�k��,6.4,�L
2022/06/06,10:50,0.144,0.141,0.210,0.204,0.212,0.119,0.081,�k�k��,6.9,�L
2022/06/06,11:00,0.145,0.140,0.210,0.205,0.211,0.120,0.081,�k�k��,4.7,�L
2022/06/06,11:10,0.146,0.140,0.209,0.205,0.213,0.119,0.082,�k��,8.1,�L
2022/06/06,11:20,0.145,0.141,0.210,0.205,0.213,0.119,0.081,�k�k��,7.3,�L
2022/06/06,11:30,0.144,0.141,0.210,0.207,0.213,0.119,0.081,�k�k��,8.5,�L
2022/06/06,11:40,0.144,0.141,0.209,0.207,0.214,0.119,0.081,�k�k��,6.6,�L
2022/06/06,11:50,0.144,0.141,0.210,0.207,0.213,0.120,0.082,�k,5.0,�L
2022/06/06,12:00,0.145,0.141,0.212,0.207,0.215,0.120,0.082,�k,8.1,�L
2022/06/06,12:10,0.145,0.142,0.211,0.206,0.214,0.121,0.081,�k,5.7,�L
2022/06/06,12:20,0.145,0.142,0.212,0.208,0.216,0.121,0.083,�k�k��,9.0,�L
2022/06/06,12:30,0.146,0.142,0.212,0.207,0.215,0.121,0.084,�k,7.2,�L
2022/06/06,12:40,0.145,0.142,0.211,0.207,0.213,0.120,0.082,�k,6.8,�L
2022/06/06,12:50,0.145,0.142,0.211,0.208,0.214,0.120,0.082,�k�k��,4.8,�L
2022/06/06,13:00,0.146,0.140,0.212,0.207,0.214,0.121,0.082,�k,7.2,�L
2022/06/06,13:10,0.145,0.141,0.211,0.206,0.216,0.120,0.082,�k,6.6,�L
2022/06/06,13:20,0.147,0.142,0.213,0.206,0.214,0.120,0.083,�k�k��,7.5,�L
2022/06/06,13:30,0.148,0.141,0.212,0.207,0.215,0.121,0.082,�k�k��,7.8,�L
2022/06/06,13:40,0.145,0.144,0.212,0.209,0.215,0.122,0.084,�k�k��,11.2,�L
2022/06/06,13:50,0.148,0.142,0.212,0.209,0.216,0.123,0.083,�k��,6.4,�L
2022/06/06,14:00,0.147,0.143,0.213,0.208,0.216,0.121,0.084,�k�k��,7.0,�L
2022/06/06,14:10,0.147,0.143,0.211,0.208,0.214,0.120,0.082,�k�k��,7.1,�L
2022/06/06,14:20,0.147,0.141,0.213,0.207,0.215,0.120,0.081,�k�k��,7.7,�L
2022/06/06,14:30,0.147,0.142,0.212,0.207,0.214,0.121,0.082,�k�k��,7.5,�L
2022/06/06,14:40,0.147,0.142,0.211,0.208,0.214,0.121,0.082,�k�k��,8.2,�L
2022/06/06,14:50,0.146,0.141,0.213,0.207,0.215,0.119,0.082,�k,6.5,�L
2022/06/06,15:00,0.146,0.139,0.211,0.208,0.213,0.120,0.081,�k�k��,7.0,�L
2022/06/06,15:10,0.146,0.141,0.210,0.208,0.215,0.120,0.081,�k�k��,5.5,�L
2022/06/06,15:20,0.146,0.140,0.211,0.206,0.214,0.120,0.081,�k�k��,6.9,�L
2022/06/06,15:30,0.146,0.141,0.211,0.207,0.213,0.120,0.083,�k�k��,6.7,�L
2022/06/06,15:40,0.147,0.142,0.210,0.206,0.215,0.121,0.082,�k�k��,7.4,�L
2022/06/06,15:50,0.146,0.141,0.210,0.206,0.212,0.119,0.081,�k�k��,8.8,�L
2022/06/06,16:00,0.147,0.141,0.211,0.207,0.216,0.120,0.082,�k�k��,7.1,�L
2022/06/06,16:10,0.146,0.139,0.210,0.207,0.214,0.120,0.082,�k��,7.3,�L
2022/06/06,16:20,0.146,0.140,0.211,0.208,0.215,0.119,0.080,�k��,6.6,�L
2022/06/06,16:30,0.145,0.140,0.209,0.204,0.213,0.118,0.080,�k��,7.1,�L
2022/06/06,16:40,0.146,0.138,0.209,0.206,0.212,0.117,0.079,�k��,6.5,�L
2022/06/06,16:50,0.146,0.138,0.209,0.205,0.213,0.118,0.079,�k��,8.4,�L
2022/06/06,17:00,0.145,0.138,0.208,0.206,0.211,0.117,0.078,�k��,8.3,�L
2022/06/06,17:10,0.145,0.138,0.209,0.206,0.214,0.117,0.078,�k��,9.0,�L
2022/06/06,17:20,0.146,0.138,0.209,0.205,0.211,0.116,0.078,�k��,7.9,�L
2022/06/06,17:30,0.145,0.137,0.208,0.207,0.213,0.117,0.078,�k��,8.6,�L
2022/06/06,17:40,0.145,0.139,0.210,0.206,0.211,0.117,0.077,�k��,8.3,�L
2022/06/06,17:50,0.146,0.138,0.209,0.205,0.211,0.117,0.078,�k��,8.6,�L
2022/06/06,18:00,0.145,0.137,0.209,0.206,0.211,0.116,0.077,�k��,8.1,�L
2022/06/06,18:10,0.145,0.138,0.207,0.204,0.211,0.116,0.077,�k��,7.2,�L
2022/06/06,18:20,0.145,0.136,0.208,0.205,0.212,0.116,0.076,�k��,6.7,�L
2022/06/06,18:30,0.144,0.136,0.209,0.204,0.209,0.114,0.075,�k��,7.6,�L
2022/06/06,18:40,0.145,0.135,0.207,0.204,0.211,0.115,0.076,�k��,6.9,�L
2022/06/06,18:50,0.145,0.136,0.209,0.205,0.209,0.115,0.076,�k��,6.7,�L
2022/06/06,19:00,0.144,0.136,0.207,0.203,0.212,0.115,0.076,�k��,6.4,�L
2022/06/06,19:10,0.144,0.136,0.207,0.204,0.209,0.115,0.077,�k�k��,5.6,�L
2022/06/06,19:20,0.145,0.136,0.208,0.203,0.211,0.116,0.077,�k��,3.8,�L
2022/06/06,19:30,0.145,0.136,0.207,0.205,0.211,0.115,0.077,�k��,3.8,�L
2022/06/06,19:40,0.145,0.136,0.209,0.205,0.210,0.116,0.077,�k�k��,4.4,�L
2022/06/06,19:50,0.147,0.137,0.209,0.204,0.212,0.116,0.078,�k�k��,3.6,�L
2022/06/06,20:00,0.145,0.137,0.208,0.204,0.210,0.117,0.077,�k�k��,3.8,�L
2022/06/06,20:10,0.146,0.137,0.209,0.205,0.212,0.116,0.078,�k�k��,4.6,�L
2022/06/06,20:20,0.146,0.137,0.208,0.206,0.211,0.118,0.078,�k��,4.2,�L
2022/06/06,20:30,0.146,0.137,0.209,0.206,0.212,0.116,0.078,�k��,4.9,�L
2022/06/06,20:40,0.146,0.138,0.209,0.204,0.213,0.117,0.078,�k�k��,3.6,�L
2022/06/06,20:50,0.146,0.137,0.208,0.205,0.212,0.118,0.078,�k�k��,2.8,�L
2022/06/06,21:00,0.147,0.137,0.210,0.205,0.213,0.118,0.078,�k��,2.8,�L
2022/06/06,21:10,0.145,0.138,0.209,0.205,0.211,0.117,0.078,�k�k��,2.7,�L
2022/06/06,21:20,0.146,0.137,0.210,0.205,0.213,0.117,0.078,�k��,4.2,�L
2022/06/06,21:30,0.144,0.137,0.209,0.205,0.212,0.117,0.077,�k�k��,3.7,�L
2022/06/06,21:40,0.145,0.138,0.209,0.205,0.212,0.117,0.078,�k��,4.3,�L
2022/06/06,21:50,0.145,0.138,0.209,0.205,0.211,0.116,0.078,�k��,4.5,�L
2022/06/06,22:00,0.145,0.138,0.209,0.205,0.212,0.117,0.077,�k�k��,3.7,�L
2022/06/06,22:10,0.144,0.136,0.209,0.203,0.211,0.116,0.078,�k�k��,3.7,�L
2022/06/06,22:20,0.145,0.136,0.208,0.204,0.211,0.117,0.078,�k�k��,5.1,�L
2022/06/06,22:30,0.145,0.136,0.209,0.205,0.211,0.115,0.077,�k�k��,6.0,�L
2022/06/06,22:40,0.144,0.137,0.208,0.204,0.213,0.116,0.077,�k�k��,6.8,�L
2022/06/06,22:50,0.145,0.136,0.208,0.205,0.210,0.116,0.076,�k�k��,6.9,�L
2022/06/06,23:00,0.144,0.136,0.210,0.204,0.210,0.116,0.076,�k�k��,6.1,�L
2022/06/06,23:10,0.145,0.136,0.209,0.205,0.210,0.115,0.076,�k�k��,6.0,�L
2022/06/06,23:20,0.144,0.135,0.209,0.205,0.210,0.116,0.077,�k�k��,4.6,�L
2022/06/06,23:30,0.145,0.136,0.208,0.205,0.211,0.116,0.076,�k�k��,5.9,�L
2022/06/06,23:40,0.144,0.136,0.209,0.204,0.210,0.116,0.076,�k�k��,5.5,�L
2022/06/06,23:50,0.144,0.137,0.209,0.204,0.212,0.116,0.076,�k�k��,6.1,�L
